Fremont, NE

7:51 AM CDT on September 25, 2016 (GMT -0500)
Fremont Municipal

Weather History for KFET - August, 2013

Change the Weather History Date:

Saturday, August 31, 2013

  Actual Average Record
Temperature  
Mean Temperature 81 °F -  
Max Temperature 92 °F 84 °F 98 °F (1948)
Min Temperature 70 °F 60 °F 45 °F (1967)
Cooling Degree Days 16    
Growing Degree Days 31 (Base 50)    
Moisture  
Dew Point 72 °F    
Average Humidity 78    
Maximum Humidity 100    
Minimum Humidity 48    
Precipitation  
Precipitation 0.00 in - - ()
Sea Level Pressure  
Sea Level Pressure 29.86 in    
Wind  
Wind Speed 2 mph (South)    
Max Wind Speed 17 mph    
Max Gust Speed 30 mph    
Visibility 10 miles    
Events      
Averages and records for this station are not official NWS values.
T = Trace of Precipitation, MM = Missing Value Source: NWS Daily Summary

Daily Weather History Graph

Daily Weather History Graph

Search for Another Location

Airport or City:

Trip Planner

Search our weather history database for the weather conditions in past years. The results will help you decide how hot, cold, wet, or windy it might be!

Date:

Astronomy

Aug. 31, 2013 Rise Set
Actual Time 6:51 AM CDT 8:00 PM CDT
Civil Twilight 6:23 AM CDT 8:28 PM CDT
Nautical Twilight 5:48 AM CDT 9:02 PM CDT
Astronomical Twilight 5:13 AM CDT 9:38 PM CDT
Moon 2:19 AM CDT (8/31) 5:01 PM CDT (8/31)
Length of Visible Light 14h 05m
Length of Day
13h 08m
Waning Crescent, 21% of the Moon is Illuminated
Aug 31
Waning Crescent
Sep 5
New
Sep 12
First Quarter
Sep 19
Full
Sep 26
Last Quarter

Hourly Weather History & Observations

Time (CDT) Temp. Heat Index Dew Point Humidity Pressure Visibility Wind Dir Wind Speed Gust Speed Precip Events Conditions
12:15 AM 74.7 °F - 72.1 °F 92% 29.89 in 10.0 mi Calm Calm - N/A   Clear
12:35 AM 74.8 °F - 72.1 °F 91% 29.88 in 10.0 mi Calm Calm - N/A   Clear
12:55 AM 73.8 °F - 71.2 °F 92% 29.89 in 10.0 mi Calm Calm - N/A   Clear
1:15 AM 71.6 °F - 70.5 °F 96% 29.88 in 10.0 mi Calm Calm - N/A   Clear
1:35 AM 72.3 °F - 71.4 °F 97% 29.88 in 10.0 mi Calm Calm - N/A   Clear
1:55 AM 72.0 °F - 71.2 °F 98% 29.94 in 10.0 mi West 17.3 mph 29.9 mph N/A   Scattered Clouds
2:15 AM 72.7 °F - 71.6 °F 96% 29.93 in 10.0 mi West 9.2 mph - N/A   Clear
2:35 AM 72.5 °F - 71.6 °F 97% 29.91 in 10.0 mi NW 3.5 mph - N/A   Clear
2:55 AM 72.0 °F - 71.2 °F 98% 29.90 in 10.0 mi Calm Calm - N/A   Clear
3:15 AM 72.5 °F - 71.2 °F 96% 29.89 in 10.0 mi NNE 3.5 mph - N/A   Clear
3:35 AM 72.7 °F - 71.6 °F 96% 29.89 in 10.0 mi Calm Calm - N/A   Clear
3:55 AM 72.1 °F - 71.6 °F 98% 29.88 in 10.0 mi Calm Calm - N/A   Clear
4:15 AM 72.0 °F - 71.2 °F 98% 29.87 in 10.0 mi NNE 3.5 mph - N/A   Clear
4:35 AM 71.1 °F - 70.7 °F 99% 29.87 in 10.0 mi NNE 3.5 mph - N/A   Clear
4:55 AM 70.7 °F - 70.5 °F 99% 29.87 in 10.0 mi ESE 3.5 mph - N/A   Clear
5:15 AM 71.6 °F - 71.2 °F 99% 29.87 in 10.0 mi Calm Calm - N/A   Clear
5:35 AM 70.3 °F - 70.3 °F 100% 29.87 in 7.0 mi SSW 3.5 mph - N/A   Clear
5:55 AM 71.1 °F - 70.9 °F 99% 29.87 in 10.0 mi Calm Calm - N/A   Clear
6:15 AM 70.9 °F - 70.7 °F 99% 29.89 in 10.0 mi Calm Calm - N/A   Clear
6:35 AM 71.1 °F - 70.5 °F 98% 29.89 in 10.0 mi Calm Calm - N/A   Clear
6:55 AM 71.4 °F - 70.9 °F 98% 29.89 in 10.0 mi Calm Calm - N/A   Clear
7:15 AM 70.3 °F - 70.2 °F 99% 29.89 in 7.0 mi Calm Calm - N/A   Clear
7:35 AM 71.6 °F - 71.4 °F 99% 29.90 in 7.0 mi Calm Calm - N/A   Clear
7:55 AM 72.3 °F - 71.6 °F 98% 29.89 in 10.0 mi ENE 3.5 mph - N/A   Clear
8:15 AM 73.4 °F - 72.1 °F 96% 29.90 in 10.0 mi Calm Calm - N/A   Clear
8:35 AM 73.4 °F - 72.1 °F 96% 29.91 in 10.0 mi Calm Calm - N/A   Clear
8:55 AM 72.9 °F - 72.0 °F 97% 29.92 in 7.0 mi Calm Calm - N/A   Clear
9:15 AM 73.4 °F - 72.7 °F 98% 29.91 in 7.0 mi Calm Calm - N/A   Clear
9:35 AM 74.8 °F - 73.4 °F 95% 29.91 in 7.0 mi North 3.5 mph - N/A   Clear
9:55 AM 77.2 °F - 73.6 °F 89% 29.91 in 10.0 mi Calm Calm - N/A   Clear
10:15 AM 77.4 °F - 73.4 °F 88% 29.90 in 10.0 mi Calm Calm - N/A   Clear
10:35 AM 77.5 °F - 73.4 °F 87% 29.90 in 10.0 mi Calm Calm - N/A   Clear
10:55 AM 79.5 °F - 73.9 °F 83% 29.89 in 10.0 mi SSE 3.5 mph - N/A   Clear
11:15 AM 81.7 °F 87.3 °F 73.9 °F 77% 29.89 in 10.0 mi Calm Calm - N/A   Clear
11:35 AM 83.1 °F 89.8 °F 74.1 °F 74% 29.89 in 10.0 mi SW 3.5 mph - N/A   Clear
11:55 AM 84.4 °F 91.0 °F 73.2 °F 69% 29.89 in 10.0 mi Calm Calm - N/A   Clear
12:15 PM 84.6 °F 91.4 °F 73.2 °F 69% 29.89 in 10.0 mi Calm Calm - N/A   Clear
12:35 PM 85.6 °F 92.2 °F 72.9 °F 65% 29.88 in 10.0 mi Calm Calm - N/A   Clear
12:55 PM 87.1 °F 95.9 °F 74.3 °F 66% 29.88 in 10.0 mi South 4.6 mph - N/A   Clear
1:15 PM 88.0 °F 95.6 °F 73.0 °F 61% 29.87 in 10.0 mi ESE 4.6 mph - N/A   Clear
1:35 PM 88.2 °F 95.0 °F 72.1 °F 59% 29.86 in 10.0 mi SSE 4.6 mph - N/A   Clear
1:55 PM 88.9 °F 96.1 °F 72.1 °F 58% 29.86 in 10.0 mi SW 4.6 mph - N/A   Clear
2:15 PM 88.5 °F 94.9 °F 71.8 °F 57% 29.86 in 10.0 mi South 5.8 mph - N/A   Clear
2:35 PM 89.8 °F 96.5 °F 71.8 °F 55% 29.85 in 10.0 mi SW 3.5 mph - N/A   Clear
2:55 PM 90.5 °F 97.0 °F 71.1 °F 53% 29.85 in 10.0 mi West 3.5 mph - N/A   Clear
3:15 PM 91.8 °F 98.6 °F 71.2 °F 51% 29.84 in 10.0 mi SW 4.6 mph - N/A   Clear
3:35 PM 90.9 °F 97.3 °F 71.1 °F 52% 29.84 in 10.0 mi SSW 3.5 mph - N/A   Clear
3:55 PM 91.6 °F 97.7 °F 70.5 °F 50% 29.83 in 10.0 mi South 5.8 mph - N/A   Clear
4:15 PM 92.1 °F 97.7 °F 69.8 °F 48% 29.82 in 10.0 mi South 4.6 mph - N/A   Clear
4:35 PM 91.8 °F 97.0 °F 69.6 °F 48% 29.82 in 10.0 mi South 5.8 mph - N/A   Clear
4:55 PM 92.3 °F 98.6 °F 70.3 °F 49% 29.82 in 10.0 mi SSW 4.6 mph - N/A   Clear
5:15 PM 91.9 °F 98.4 °F 70.7 °F 50% 29.82 in 10.0 mi South 4.6 mph - N/A   Clear
5:35 PM 92.3 °F 98.6 °F 70.3 °F 49% 29.81 in 10.0 mi South 6.9 mph - N/A   Clear
5:55 PM 92.5 °F 98.4 °F 70.2 °F 48% 29.81 in 10.0 mi SSE 5.8 mph - N/A   Clear
6:15 PM 91.9 °F 98.4 °F 71.1 °F 50% 29.81 in 10.0 mi SSE 4.6 mph - N/A   Clear
6:35 PM 91.4 °F 98.4 °F 71.8 °F 52% 29.80 in 10.0 mi SSE 4.6 mph - N/A   Clear
6:55 PM 90.7 °F 97.4 °F 71.2 °F 53% 29.80 in 10.0 mi SSE 3.5 mph - N/A   Clear
7:15 PM 90.0 °F 96.9 °F 71.6 °F 55% 29.80 in 10.0 mi SSE 5.8 mph - N/A   Clear
7:35 PM 88.9 °F 95.1 °F 71.6 °F 56% 29.80 in 10.0 mi South 3.5 mph - N/A   Clear
7:55 PM 86.9 °F 92.5 °F 71.1 °F 59% 29.80 in 10.0 mi South 3.5 mph - N/A   Clear
8:15 PM 84.9 °F 90.7 °F 71.8 °F 65% 29.81 in 10.0 mi Calm Calm - N/A   Clear
8:35 PM 82.9 °F 88.0 °F 72.0 °F 69% 29.81 in 10.0 mi SSW 3.5 mph - N/A   Clear
8:55 PM 81.9 °F 87.0 °F 72.7 °F 74% 29.82 in 10.0 mi Calm Calm - N/A   Clear
9:15 PM 80.8 °F 85.1 °F 72.1 °F 75% 29.82 in 10.0 mi Calm Calm - N/A   Clear
9:35 PM 82.6 °F 87.6 °F 72.0 °F 70% 29.83 in 10.0 mi Calm Calm - N/A   Clear
9:55 PM 79.3 °F - 71.8 °F 78% 29.83 in 10.0 mi Calm Calm - N/A   Clear
10:15 PM 79.3 °F - 72.0 °F 78% 29.83 in 10.0 mi Calm Calm - N/A   Clear
10:35 PM 78.8 °F - 72.0 °F 79% 29.82 in 10.0 mi Calm Calm - N/A   Clear
10:55 PM 79.0 °F - 72.7 °F 81% 29.82 in 10.0 mi Calm Calm - N/A   Clear
11:15 PM 78.8 °F - 72.5 °F 81% 29.82 in 10.0 mi Calm Calm - N/A   Clear
11:35 PM 79.0 °F - 72.5 °F 80% 29.82 in 10.0 mi SE 3.5 mph - N/A   Clear
11:55 PM 77.5 °F - 72.7 °F 85% 29.81 in 10.0 mi Calm Calm - N/A   Clear